#timestamp,LO_Frequency,Hit,StdDev 
1563361215.1,286046998.6,P
1563361235.9,286047001.0,P
1563361255.7,286047002.8,N
1563361275.5,286047002.3,N
1563361295.4,286047002.8,N
1563361315.2,286047002.2,N
1563361335.1,286047003.7,N
1563361336.0,286047003.7,N
1563361355.8,286047001.7,N
1563361375.6,286047000.5,N
1563361395.5,286047001.1,N
1563361415.3,286046998.3,N
1563361435.2,286047000.7,N
1563361455.0,286046998.1,N
1563361455.9,286046998.1,N
1563361475.7,286046998.4,N
1563361495.6,286046999.8,N
1563361515.4,286047000.6,N
1563361535.3,286046998.1,N
1563361555.1,286047000.9,N
1563361575.8,286047002.7,N
1563361595.7,286047002.8,N
1563361615.5,286047001.4,N
1563361635.4,286047002.4,N
1563361655.2,286046999.8,N
1563361675.0,286047000.3,N
1563361675.9,286047000.3,N
1563361695.8,286047001.0,N
1563361715.6,286047001.1,N
1563361735.4,286047002.8,N
1563361755.3,286047000.1,N
1563361775.1,286047000.4,N
1563361795.9,286047001.0,N
1563361815.7,286046998.1,N
1563361835.5,286046998.2,N
1563361855.4,286047000.2,N
1563361875.2,286047000.4,N
1563361895.1,286046999.7,N
1563361896.0,286046999.7,N
1563361915.8,286047001.4,N
1563361935.6,286047002.3,N
1563361955.5,286047000.2,N
1563361975.3,286046999.7,N
1563361995.2,286046999.7,N
1563362015.9,286047002.0,N
1563362035.7,286047000.0,N
1563362055.6,286046998.2,N
1563362075.4,286047001.2,N
1563362095.3,286047001.0,N
1563362115.1,286047000.0,N
1563362135.8,286047001.1,N
1563362155.7,286047001.0,N
1563362175.3,286046999.8,N
1563362195.2,286047002.3,N
1563362215.0,286046999.7,N
1563362215.9,286046999.7,N
1563362235.8,286047004.2,Y
1563362255.6,286047000.1,P
1563362275.4,286047000.0,N
1563362295.3,286047003.4,P
1563362315.1,286047002.9,N
1563362335.9,286047004.4,N
1563362355.7,286047004.3,N
1563362375.5,286047003.7,N
1563362395.4,286047005.6,Y
1563362415.2,286047002.2,P
1563362435.1,286046999.9,N
1563362455.9,286047000.9,N
1563362475.7,286046998.1,N
1563362495.6,286047000.4,N
1563362515.4,286046999.7,N
1563362535.2,286047002.2,N
1563362555.1,286047001.9,N
1563362556.0,286047001.9,N
1563362575.8,286047000.6,N
1563362595.7,286047002.3,N
1563362615.5,286047001.2,N
1563362635.3,286046998.4,N
1563362655.2,286046996.9,N
1563362675.0,286046999.0,N
1563362675.9,286046999.0,N
1563362695.8,286046996.5,N
1563362715.6,286046998.4,N
1563362735.4,286047001.2,N
1563362755.3,286046998.2,N
1563362775.1,286047000.8,N
1563362795.9,286047002.4,N
1563362815.7,286047001.1,N
1563362835.5,286047000.3,N
1563362855.4,286047001.0,N
1563362875.2,286047000.0,N
1563362895.0,286046999.7,N
1563362895.9,286046999.7,N
1563362915.8,286047004.2,N
1563362935.6,286047003.5,N
1563362955.5,286047004.1,N
1563362975.3,286047003.7,N
1563362995.1,286047007.0,Y
1563363015.9,286047005.3,P
1563363035.7,286047004.6,N
1563363055.6,286047004.7,N
1563363075.4,286047005.4,N
1563363095.2,286047005.2,N
1563363115.1,286047005.6,Y
1563363116.0,286047005.6,P
1563363135.8,286047000.2,N
1563363155.7,286047000.6,N
1563363175.5,286046998.3,N
1563363225.4,286046999.0,E
1563363235.3,286046998.8,N
1563363255.1,286046998.9,P
1563363275.9,286046998.4,P
1563363295.7,286046998.8,Y
1563363315.5,286046998.1,P
1563363335.4,286046998.5,P
1563363355.2,286046999.0,P
1563363375.1,286046999.4,N
1563363376.0,286046999.4,N
1563363395.8,286046999.4,N
1563363415.7,286046996.9,Y
1563363435.5,286046999.3,P
1563363455.4,286046999.0,P
1563363475.2,286046999.3,P
1563363495.0,286046998.9,Y
1563363495.9,286046998.9,P
1563363515.8,286047001.0,P
1563363535.6,286046998.3,N
1563363555.4,286046998.1,N
1563363575.3,286046999.9,N
1563363595.1,286046998.5,N
1563363615.9,286047000.6,N
1563363635.7,286046998.2,N
1563363655.5,286046998.4,N
1563363675.4,286046998.8,N
1563363695.2,286046998.7,N
1563363715.1,286047001.2,N
1563363716.0,286047001.2,N
1563363735.8,286046998.6,N
1563363755.6,286046997.8,N
1563363775.5,286046997.5,N
1563363795.3,286046997.6,N
1563363815.1,286046997.0,N
1563363835.9,286046996.6,N
1563363855.7,286046999.1,N
1563363875.6,286046996.7,N
1563363895.4,286046999.5,N
1563363915.2,286046998.3,N
1563363935.1,286046999.2,N
1563363936.0,286046999.2,N
1563363955.8,286046997.2,N
1563363975.7,286046995.4,Y
1563363995.5,286046999.2,P
1563364015.3,286046997.8,P
1563364035.2,286046997.6,P
1563364055.0,286046997.3,Y
1563364055.9,286046997.3,P
1563364075.8,286046998.8,N
1563364095.6,286046998.8,N
1563364115.4,286047001.1,N
1563364135.3,286047000.3,N
1563364155.1,286046999.7,N
1563364175.9,286047000.5,N
1563364195.7,286047000.5,N
1563364215.5,286047000.4,N
1563364235.1,286047002.3,N
1563364255.9,286047000.7,N
1563364275.7,286046998.4,N
1563364295.5,286047000.6,N
1563364315.4,286047000.6,N
1563364335.2,286046999.9,N
1563364355.1,286047002.5,N
1563364356.0,286047002.5,N
1563364375.8,286047002.7,N
1563364395.6,286046998.9,N
1563364415.5,286046998.6,N
1563364435.3,286047001.0,N
1563364455.2,286047001.2,N
1563364475.9,286047000.7,N
1563364495.7,286046999.4,N
1563364515.6,286046999.2,N
1563364535.4,286046996.8,N
1563364555.0,286046997.4,N
1563364555.9,286046997.4,N
1563364575.7,286046999.2,N
1563364595.6,286046998.8,N
1563364615.4,286046999.6,N
1563364635.3,286046996.5,N
1563364655.1,286046999.6,N
1563364675.8,286046999.0,N
1563364695.7,286046998.3,N
1563364715.5,286046997.0,N
1563364735.4,286046996.6,N
1563364755.2,286046996.5,N
1563364775.0,286046999.1,N
1563364775.9,286046999.1,N
1563364795.8,286046996.5,N
